| time (UTC) | temp F | wind direction | speed knots | gust knots | rain 1hr in | rain 24hr in | rain mn in | humidity % | barometer mb |
| 20260902073003 | 81 | 182 | 0.0 | 0.9 | 0.00 | 0.00 | 0.00 | 79 | 1015.3 |
| 20260902072503 | 81 | 0 | 0.0 | 0.0 | 0.00 | 0.00 | 0.00 | 79 | 1015.5 |
| 20260902072003 | 81 | 182 | 0.0 | 0.9 | 0.00 | 0.00 | 0.00 | 78 | 1015.5 |
| 20260902071503 | 81 | 182 | 0.0 | 1.7 | 0.00 | 0.00 | 0.00 | 78 | 1015.4 |
| 20260902070504 | 82 | 182 | 0.0 | 0.9 | 0.00 | 0.00 | 0.00 | 78 | 1015.5 |
| 20260902065503 | 82 | 0 | 0.0 | 0.0 | 0.00 | 0.00 | 0.00 | 77 | 1015.6 |
| 20260902064503 | 82 | 182 | 0.0 | 1.7 | 0.00 | 0.00 | 0.00 | 77 | 1015.6 |
| 20260902064003 | 82 | 182 | 0.0 | 1.7 | 0.00 | 0.00 | 0.00 | 77 | 1015.6 |
| 20260902063504 | 82 | 182 | 0.0 | 0.9 | 0.00 | 0.00 | 0.00 | 76 | 1015.5 |
| 20260902063003 | 83 | 179 | 0.0 | 1.7 | 0.00 | 0.00 | 0.00 | 76 | 1015.5 |
| 20260902062503 | 83 | 175 | 0.0 | 1.7 | 0.00 | 0.00 | 0.00 | 76 | 1015.5 |
| 20260902062004 | 83 | 178 | 0.0 | 3.5 | 0.00 | 0.00 | 0.00 | 76 | 1015.4 |
| 20260902061003 | 83 | 176 | 0.0 | 1.7 | 0.00 | 0.00 | 0.00 | 75 | 1015.5 |
| 20260902060503 | 83 | 173 | 0.0 | 1.7 | 0.00 | 0.00 | 0.00 | 75 | 1015.4 |
| 20260902060003 | 84 | 174 | 0.0 | 1.7 | 0.00 | 0.00 | 0.00 | 75 | 1015.4 |
| 20260902055503 | 84 | 171 | 0.0 | 1.7 | 0.00 | 0.00 | 0.00 | 74 | 1015.5 |
| 20260902055004 | 84 | 176 | 0.0 | 2.6 | 0.00 | 0.00 | 0.00 | 74 | 1015.4 |
| 20260902054503 | 84 | 181 | 0.9 | 2.6 | 0.00 | 0.00 | 0.00 | 74 | 1015.5 |
| 20260902054003 | 84 | 182 | 0.9 | 2.6 | 0.00 | 0.00 | 0.00 | 74 | 1015.5 |
| 20260902053504 | 84 | 177 | 0.9 | 3.5 | 0.00 | 0.00 | 0.00 | 73 | 1015.4 |
| 20260902053003 | 84 | 176 | 0.9 | 3.5 | 0.00 | 0.00 | 0.00 | 73 | 1015.4 |
| 20260902052502 | 84 | 174 | 0.9 | 3.5 | 0.00 | 0.00 | 0.00 | 73 | 1015.4 |
| 20260902052001 | 84 | 175 | 0.9 | 2.6 | 0.00 | 0.00 | 0.00 | 73 | 1015.4 |
| 20260902051501 | 85 | 191 | 0.0 | 3.5 | 0.00 | 0.00 | 0.00 | 72 | 1015.3 |
| 20260902050501 | 85 | 195 | 0.0 | 1.7 | 0.00 | 0.00 | 0.00 | 72 | 1015.4 |
| 20260902050004 | 85 | 173 | 0.0 | 1.7 | 0.00 | 0.00 | 0.00 | 71 | 1015.5 |
| 20260902045002 | 86 | 168 | 0.9 | 4.3 | 0.00 | 0.00 | 0.00 | 71 | 1015.4 |
| 20260902044501 | 86 | 173 | 0.9 | 4.3 | 0.00 | 0.00 | 0.00 | 70 | 1015.3 |
| 20260902044001 | 86 | 177 | 0.9 | 3.5 | 0.00 | 0.00 | 0.00 | 70 | 1015.3 |
| 20260902043501 | 86 | 181 | 0.9 | 3.5 | 0.00 | 0.00 | 0.00 | 70 | 1015.3 |
| 20260902043001 | 86 | 173 | 0.9 | 3.5 | 0.00 | 0.00 | 0.00 | 69 | 1015.3 |
| 20260902042502 | 87 | 172 | 0.9 | 3.5 | 0.00 | 0.00 | 0.00 | 69 | 1015.3 |
| 20260902042001 | 87 | 181 | 0.9 | 5.2 | 0.00 | 0.00 | 0.00 | 69 | 1015.3 |
| 20260902041502 | 87 | 185 | 1.7 | 5.2 | 0.00 | 0.00 | 0.00 | 68 | 1015.3 |
| 20260902040001 | 87 | 172 | 1.7 | 6.1 | 0.00 | 0.00 | 0.00 | 67 | 1015.2 |
| 20260902035501 | 88 | 175 | 1.7 | 5.2 | 0.00 | 0.00 | 0.00 | 66 | 1015.1 |
| 20260902035002 | 88 | 169 | 1.7 | 5.2 | 0.00 | 0.00 | 0.00 | 66 | 1014.9 |
| 20260902034502 | 88 | 166 | 2.6 | 7.8 | 0.00 | 0.00 | 0.00 | 66 | 1015.1 |
| 20260902034001 | 88 | 166 | 1.7 | 7.8 | 0.00 | 0.00 | 0.00 | 66 | 1015.0 |
| 20260902033502 | 88 | 157 | 1.7 | 7.0 | 0.00 | 0.00 | 0.00 | 66 | 1014.8 |
| 20260902033001 | 87 | 149 | 0.9 | 7.0 | 0.00 | 0.00 | 0.00 | 68 | 1014.7 |
| 20260902032501 | 87 | 168 | 0.0 | 4.3 | 0.00 | 0.00 | 0.00 | 71 | 1014.7 |
| 20260902032001 | 87 | 0 | 0.0 | 0.0 | 0.00 | 0.00 | 0.00 | 69 | 1014.4 |
| 20260902031501 | 87 | 0 | 0.0 | 0.0 | 0.00 | 0.00 | 0.00 | 68 | 1014.3 |
| 20260902031001 | 87 | 0 | 0.0 | 0.0 | 0.00 | 0.00 | 0.00 | 66 | 1014.3 |
| 20260902030501 | 88 | 0 | 0.0 | 0.0 | 0.00 | 0.00 | 0.00 | 65 | 1014.2 |
| 20260902030002 | 88 | 0 | 0.0 | 0.0 | 0.00 | 0.00 | 0.00 | 65 | 1014.2 |
| 20260902025501 | 88 | 0 | 0.0 | 0.0 | 0.00 | 0.00 | 0.00 | 64 | 1014.1 |
| 20260902025001 | 88 | 0 | 0.0 | 0.0 | 0.00 | 0.00 | 0.00 | 63 | 1014.0 |
| 20260902024502 | 89 | 0 | 0.0 | 0.0 | 0.00 | 0.00 | 0.00 | 62 | 1014.1 |
| 20260902024001 | 89 | 0 | 0.0 | 0.0 | 0.00 | 0.00 | 0.00 | 61 | 1014.0 |
| 20260902023002 | 90 | 0 | 0.0 | 0.0 | 0.00 | 0.00 | 0.00 | 61 | 1013.9 |
| 20260902022502 | 90 | 182 | 0.0 | 1.7 | 0.00 | 0.00 | 0.00 | 60 | 1013.8 |
| 20260902022002 | 91 | 176 | 0.0 | 1.7 | 0.00 | 0.00 | 0.00 | 60 | 1013.7 |
| 20260902021501 | 91 | 187 | 0.0 | 2.6 | 0.00 | 0.00 | 0.00 | 60 | 1013.6 |
| 20260902021002 | 91 | 168 | 0.0 | 2.6 | 0.00 | 0.00 | 0.00 | 59 | 1013.6 |
| 20260902015501 | 92 | 159 | 0.9 | 6.1 | 0.00 | 0.00 | 0.00 | 59 | 1013.4 |
| 20260902015001 | 92 | 103 | 0.0 | 1.7 | 0.00 | 0.00 | 0.00 | 59 | 1013.3 |
| 20260902014501 | 92 | 103 | 0.0 | 1.7 | 0.00 | 0.00 | 0.00 | 58 | 1013.3 |
| 20260902013501 | 93 | 85 | 0.0 | 1.7 | 0.00 | 0.00 | 0.00 | 57 | 1013.2 |
| 20260902012001 | 92 | 99 | 0.0 | 3.5 | 0.00 | 0.00 | 0.00 | 57 | 1013.1 |
| 20260902011502 | 92 | 117 | 0.0 | 3.5 | 0.00 | 0.00 | 0.00 | 57 | 1013.0 |
| 20260902010501 | 92 | 113 | 0.0 | 1.7 | 0.00 | 0.00 | 0.00 | 58 | 1012.9 |
| 20260902010001 | 92 | 111 | 0.0 | 1.7 | 0.00 | 0.00 | 0.00 | 59 | 1012.9 |
| 20260902005501 | 92 | 80 | 0.0 | 2.6 | 0.00 | 0.00 | 0.00 | 58 | 1013.0 |
| 20260902005002 | 92 | 66 | 0.0 | 2.6 | 0.00 | 0.00 | 0.00 | 58 | 1013.0 |
| 20260902004502 | 93 | 90 | 0.0 | 0.9 | 0.00 | 0.00 | 0.00 | 58 | 1013.1 |
| 20260902004002 | 94 | 0 | 0.0 | 0.0 | 0.00 | 0.00 | 0.00 | 56 | 1012.8 |
| 20260902003501 | 94 | 0 | 0.0 | 0.0 | 0.00 | 0.00 | 0.00 | 55 | 1012.9 |
| 20260902003001 | 94 | 0 | 0.0 | 0.0 | 0.00 | 0.00 | 0.00 | 54 | 1012.9 |
| 20260902002502 | 95 | 0 | 0.0 | 0.0 | 0.00 | 0.00 | 0.00 | 54 | 1013.0 |
| 20260902002002 | 95 | 0 | 0.0 | 0.0 | 0.00 | 0.00 | 0.00 | 54 | 1012.9 |
| 20260902001502 | 95 | 0 | 0.0 | 0.0 | 0.00 | 0.00 | 0.00 | 54 | 1012.9 |
| 20260902001002 | 96 | 0 | 0.0 | 0.0 | 0.00 | 0.00 | 0.00 | 53 | 1013.0 |
| 20260902000502 | 96 | 0 | 0.0 | 0.0 | 0.00 | 0.00 | 0.00 | 54 | 1013.1 |
| 20260902000002 | 96 | 0 | 0.0 | 0.0 | 0.00 | 0.00 | 0.00 | 53 | 1013.1 |
| 20260901235002 | 97 | 153 | 0.0 | 1.7 | 0.00 | 0.00 | 0.00 | 52 | 1013.1 |
| 20260901234502 | 97 | 0 | 0.0 | 0.0 | 0.00 | 0.00 | 0.00 | 52 | 1013.2 |
| 20260901234001 | 97 | 0 | 0.0 | 0.0 | 0.00 | 0.00 | 0.00 | 52 | 1013.3 |
| 20260901233002 | 97 | 45 | 0.0 | 2.6 | 0.00 | 0.00 | 0.00 | 51 | 1013.4 |
| 20260901232502 | 97 | 78 | 0.0 | 2.6 | 0.00 | 0.00 | 0.00 | 51 | 1013.4 |
| 20260901232001 | 97 | 103 | 0.0 | 3.5 | 0.00 | 0.00 | 0.00 | 51 | 1013.4 |
| 20260901231502 | 98 | 113 | 0.0 | 3.5 | 0.00 | 0.00 | 0.00 | 52 | 1013.4 |
| 20260901231001 | 97 | 126 | 0.0 | 1.7 | 0.00 | 0.00 | 0.00 | 53 | 1013.4 |
| 20260901230502 | 97 | 125 | 0.0 | 1.7 | 0.00 | 0.00 | 0.00 | 52 | 1013.4 |
| 20260901230002 | 97 | 115 | 0.0 | 2.6 | 0.00 | 0.00 | 0.00 | 52 | 1013.5 |
| 20260901225502 | 97 | 110 | 0.0 | 2.6 | 0.00 | 0.00 | 0.00 | 51 | 1013.4 |
| 20260901225002 | 97 | 108 | 0.0 | 1.7 | 0.00 | 0.00 | 0.00 | 50 | 1013.5 |
| 20260901224502 | 98 | 114 | 0.0 | 1.7 | 0.00 | 0.00 | 0.00 | 51 | 1013.4 |
| 20260901224002 | 98 | 135 | 0.0 | 0.9 | 0.00 | 0.00 | 0.00 | 49 | 1013.4 |
| 20260901223502 | 98 | 166 | 0.0 | 0.9 | 0.00 | 0.00 | 0.00 | 50 | 1013.5 |
| 20260901223002 | 98 | 151 | 0.0 | 0.9 | 0.00 | 0.00 | 0.00 | 50 | 1013.5 |
| 20260901222501 | 98 | 156 | 0.0 | 1.7 | 0.00 | 0.00 | 0.00 | 49 | 1013.5 |
| 20260901222002 | 99 | 151 | 0.0 | 1.7 | 0.00 | 0.00 | 0.00 | 49 | 1013.5 |
| 20260901221502 | 100 | 136 | 0.0 | 1.7 | 0.00 | 0.00 | 0.00 | 48 | 1013.6 |
| 20260901221001 | 99 | 127 | 0.0 | 1.7 | 0.00 | 0.00 | 0.00 | 50 | 1013.6 |
| 20260901220502 | 98 | 123 | 0.0 | 1.7 | 0.00 | 0.00 | 0.00 | 50 | 1013.6 |
| 20260901220001 | 97 | 110 | 0.0 | 1.7 | 0.00 | 0.00 | 0.00 | 50 | 1013.6 |
| 20260901215502 | 98 | 96 | 0.0 | 0.9 | 0.00 | 0.00 | 0.00 | 50 | 1013.7 |
| 20260901215001 | 98 | 95 | 0.0 | 0.9 | 0.00 | 0.00 | 0.00 | 50 | 1013.7 |
| 20260901214502 | 98 | 92 | 0.0 | 1.7 | 0.00 | 0.00 | 0.00 | 50 | 1013.8 |
| 20260901213502 | 98 | 126 | 0.0 | 2.6 | 0.00 | 0.00 | 0.00 | 49 | 1013.8 |
| 20260901213002 | 98 | 158 | 0.0 | 2.6 | 0.00 | 0.00 | 0.00 | 48 | 1013.8 |
| 20260901212502 | 99 | 114 | 0.0 | 0.9 | 0.00 | 0.00 | 0.00 | 48 | 1013.9 |
| 20260901212002 | 100 | 162 | 0.0 | 3.5 | 0.00 | 0.00 | 0.00 | 47 | 1014.0 |
| 20260901211502 | 100 | 168 | 0.9 | 3.5 | 0.00 | 0.00 | 0.00 | 47 | 1014.0 |
| 20260901211001 | 101 | 189 | 0.9 | 3.5 | 0.00 | 0.00 | 0.00 | 46 | 1014.0 |
| 20260901210502 | 102 | 225 | 0.9 | 3.5 | 0.00 | 0.00 | 0.00 | 45 | 1014.1 |
| 20260901210002 | 102 | 321 | 0.0 | 2.6 | 0.00 | 0.00 | 0.00 | 46 | 1014.1 |
| 20260901205502 | 103 | 121 | 0.0 | 2.6 | 0.00 | 0.00 | 0.00 | 45 | 1014.1 |
| 20260901205002 | 103 | 129 | 0.9 | 2.6 | 0.00 | 0.00 | 0.00 | 45 | 1014.1 |
| 20260901204502 | 102 | 131 | 0.0 | 3.5 | 0.00 | 0.00 | 0.00 | 46 | 1014.3 |
| 20260901204002 | 102 | 148 | 0.9 | 3.5 | 0.00 | 0.00 | 0.00 | 46 | 1014.2 |
| 20260901203502 | 101 | 232 | 0.9 | 2.6 | 0.00 | 0.00 | 0.00 | 47 | 1014.2 |
| 20260901203001 | 100 | 277 | 0.9 | 2.6 | 0.00 | 0.00 | 0.00 | 47 | 1014.3 |
| 20260901202502 | 102 | 48 | 0.9 | 2.6 | 0.00 | 0.00 | 0.00 | 46 | 1014.3 |
| 20260901202002 | 102 | 100 | 0.0 | 2.6 | 0.00 | 0.00 | 0.00 | 47 | 1014.4 |
| 20260901201502 | 102 | 119 | 0.0 | 1.7 | 0.00 | 0.00 | 0.00 | 46 | 1014.4 |
| 20260901201002 | 102 | 156 | 0.9 | 3.5 | 0.00 | 0.00 | 0.00 | 47 | 1014.5 |
| 20260901200002 | 102 | 160 | 0.9 | 3.5 | 0.00 | 0.00 | 0.00 | 47 | 1014.6 |
| 20260901195002 | 101 | 233 | 0.0 | 2.6 | 0.00 | 0.00 | 0.00 | 48 | 1014.7 |
| 20260901194002 | 101 | 94 | 0.9 | 2.6 | 0.00 | 0.00 | 0.00 | 48 | 1014.9 |
| 20260901193502 | 100 | 98 | 0.9 | 3.5 | 0.00 | 0.00 | 0.00 | 49 | 1014.9 |
| 20260901193002 | 100 | 101 | 0.9 | 3.5 | 0.00 | 0.00 | 0.00 | 49 | 1014.9 |
| 20260901192502 | 100 | 97 | 0.9 | 3.5 | 0.00 | 0.00 | 0.00 | 49 | 1015.1 |
| 20260901192002 | 100 | 89 | 0.9 | 3.5 | 0.00 | 0.00 | 0.00 | 49 | 1015.2 |
| 20260901191502 | 100 | 338 | 0.9 | 3.5 | 0.00 | 0.00 | 0.00 | 50 | 1015.2 |
| 20260901191002 | 100 | 310 | 0.0 | 1.7 | 0.00 | 0.00 | 0.00 | 49 | 1015.4 |
| 20260901190502 | 101 | 127 | 0.9 | 2.6 | 0.00 | 0.00 | 0.00 | 48 | 1015.4 |
| 20260901190003 | 100 | 135 | 0.9 | 3.5 | 0.00 | 0.00 | 0.00 | 49 | 1015.6 |
| 20260901185502 | 101 | 127 | 0.9 | 4.3 | 0.00 | 0.00 | 0.00 | 48 | 1015.6 |
| 20260901185002 | 101 | 116 | 0.9 | 4.3 | 0.00 | 0.00 | 0.00 | 48 | 1015.7 |
| 20260901184502 | 101 | 126 | 0.9 | 2.6 | 0.00 | 0.00 | 0.00 | 49 | 1015.8 |
| 20260901184003 | 101 | 152 | 0.9 | 4.3 | 0.00 | 0.00 | 0.00 | 49 | 1015.9 |
| 20260901183502 | 100 | 130 | 0.9 | 4.3 | 0.00 | 0.00 | 0.00 | 49 | 1016.0 |
| 20260901183002 | 100 | 89 | 0.9 | 4.3 | 0.00 | 0.00 | 0.00 | 50 | 1016.1 |
| 20260901182503 | 100 | 103 | 0.9 | 2.6 | 0.00 | 0.00 | 0.00 | 49 | 1016.1 |
| 20260901182002 | 100 | 119 | 0.9 | 2.6 | 0.00 | 0.00 | 0.00 | 50 | 1016.2 |
| 20260901181502 | 100 | 102 | 0.9 | 2.6 | 0.00 | 0.00 | 0.00 | 50 | 1016.3 |
| 20260901181002 | 99 | 68 | 0.9 | 2.6 | 0.00 | 0.00 | 0.00 | 51 | 1016.4 |
| 20260901180502 | 99 | 70 | 0.9 | 1.7 | 0.00 | 0.00 | 0.00 | 50 | 1016.6 |
| 20260901180002 | 99 | 82 | 0.0 | 2.6 | 0.00 | 0.00 | 0.00 | 52 | 1016.6 |
| 20260901175503 | 99 | 92 | 0.9 | 2.6 | 0.00 | 0.00 | 0.00 | 52 | 1016.6 |
| 20260901175002 | 99 | 113 | 0.9 | 2.6 | 0.00 | 0.00 | 0.00 | 52 | 1016.7 |
| 20260901174502 | 98 | 86 | 0.9 | 3.5 | 0.00 | 0.00 | 0.00 | 52 | 1016.8 |
| 20260901173502 | 98 | 93 | 0.9 | 3.5 | 0.00 | 0.00 | 0.00 | 52 | 1016.9 |
| 20260901173003 | 99 | 108 | 0.0 | 3.5 | 0.00 | 0.00 | 0.00 | 52 | 1017.0 |
| 20260901172503 | 98 | 117 | 0.0 | 0.9 | 0.00 | 0.00 | 0.00 | 54 | 1017.1 |
| 20260901172002 | 98 | 333 | 0.0 | 1.7 | 0.00 | 0.00 | 0.00 | 56 | 1017.0 |
| 20260901171502 | 97 | 75 | 0.9 | 2.6 | 0.00 | 0.00 | 0.00 | 56 | 1017.0 |
| 20260901170502 | 97 | 76 | 0.0 | 2.6 | 0.00 | 0.00 | 0.00 | 56 | 1017.2 |
| 20260901165503 | 97 | 106 | 0.0 | 0.9 | 0.00 | 0.00 | 0.00 | 56 | 1017.3 |
| 20260901163502 | 95 | 108 | 0.0 | 1.7 | 0.00 | 0.00 | 0.00 | 59 | 1017.4 |
| 20260901162502 | 94 | 131 | 0.9 | 3.5 | 0.00 | 0.00 | 0.00 | 60 | 1017.4 |
| 20260901162003 | 94 | 125 | 0.9 | 3.5 | 0.00 | 0.00 | 0.00 | 63 | 1017.4 |
| 20260901161502 | 94 | 131 | 0.9 | 2.6 | 0.00 | 0.00 | 0.00 | 62 | 1017.4 |
| 20260901161002 | 94 | 140 | 0.0 | 1.7 | 0.00 | 0.00 | 0.00 | 61 | 1017.5 |
| 20260901160502 | 94 | 121 | 0.0 | 3.5 | 0.00 | 0.00 | 0.00 | 62 | 1017.4 |
| 20260901160003 | 93 | 126 | 0.9 | 3.5 | 0.00 | 0.00 | 0.00 | 63 | 1017.4 |
| 20260901155502 | 93 | 136 | 0.9 | 3.5 | 0.00 | 0.00 | 0.00 | 63 | 1017.3 |
| 20260901155003 | 94 | 138 | 0.9 | 3.5 | 0.00 | 0.00 | 0.00 | 63 | 1017.3 |
| 20260901154003 | 93 | 281 | 0.9 | 1.7 | 0.00 | 0.00 | 0.00 | 62 | 1017.4 |
| 20260901153503 | 93 | 270 | 0.9 | 3.5 | 0.00 | 0.00 | 0.00 | 63 | 1017.4 |
| 20260901153003 | 93 | 251 | 0.0 | 3.5 | 0.00 | 0.00 | 0.00 | 61 | 1017.4 |
| 20260901152502 | 92 | 239 | 0.0 | 4.3 | 0.00 | 0.00 | 0.00 | 62 | 1017.3 |
| 20260901152003 | 92 | 241 | 0.0 | 4.3 | 0.00 | 0.00 | 0.00 | 63 | 1017.3 |
| 20260901151503 | 92 | 159 | 0.0 | 2.6 | 0.00 | 0.00 | 0.00 | 65 | 1017.3 |
| 20260901151002 | 91 | 297 | 0.9 | 2.6 | 0.00 | 0.00 | 0.00 | 64 | 1017.5 |
| 20260901150502 | 91 | 310 | 0.0 | 2.6 | 0.00 | 0.00 | 0.00 | 67 | 1017.4 |
| 20260901150002 | 91 | 179 | 0.0 | 0.9 | 0.00 | 0.00 | 0.00 | 65 | 1017.4 |
| 20260901145002 | 90 | 200 | 0.0 | 1.7 | 0.00 | 0.00 | 0.00 | 68 | 1017.5 |
| 20260901144502 | 90 | 190 | 0.0 | 1.7 | 0.00 | 0.00 | 0.00 | 68 | 1017.6 |
| 20260901144002 | 89 | 136 | 0.0 | 1.7 | 0.00 | 0.00 | 0.00 | 69 | 1017.6 |
| 20260901143503 | 89 | 108 | 0.0 | 1.7 | 0.00 | 0.00 | 0.00 | 70 | 1017.7 |
| 20260901143002 | 88 | 152 | 0.0 | 1.7 | 0.00 | 0.00 | 0.00 | 70 | 1017.7 |
| 20260901142502 | 88 | 168 | 0.9 | 3.5 | 0.00 | 0.00 | 0.00 | 70 | 1017.8 |
| 20260901142003 | 88 | 177 | 0.9 | 3.5 | 0.00 | 0.00 | 0.00 | 70 | 1017.7 |
| 20260901141502 | 88 | 184 | 0.0 | 1.7 | 0.00 | 0.00 | 0.00 | 70 | 1017.6 |
| 20260901141003 | 87 | 168 | 0.0 | 0.9 | 0.00 | 0.00 | 0.00 | 71 | 1017.6 |
| 20260901140503 | 86 | 174 | 0.0 | 0.9 | 0.00 | 0.00 | 0.00 | 73 | 1017.5 |
| 20260901140003 | 86 | 175 | 0.0 | 0.9 | 0.00 | 0.00 | 0.00 | 73 | 1017.5 |
| 20260901135502 | 84 | 181 | 0.0 | 0.9 | 0.00 | 0.00 | 0.00 | 75 | 1017.7 |
| 20260901135002 | 83 | 181 | 0.0 | 0.9 | 0.00 | 0.00 | 0.00 | 76 | 1017.6 |
| 20260901134503 | 83 | 0 | 0.0 | 0.0 | 0.00 | 0.00 | 0.00 | 77 | 1017.7 |
| 20260901133503 | 81 | 0 | 0.0 | 0.0 | 0.00 | 0.00 | 0.00 | 79 | 1017.7 |
| 20260901133003 | 80 | 0 | 0.0 | 0.0 | 0.00 | 0.00 | 0.00 | 80 | 1017.6 |
| 20260901132502 | 80 | 0 | 0.0 | 0.0 | 0.00 | 0.00 | 0.00 | 80 | 1017.6 |
| 20260901132003 | 80 | 0 | 0.0 | 0.0 | 0.00 | 0.00 | 0.00 | 80 | 1017.5 |
| 20260901131502 | 80 | 0 | 0.0 | 0.0 | 0.00 | 0.00 | 0.00 | 81 | 1017.5 |
| 20260901131003 | 79 | 0 | 0.0 | 0.0 | 0.00 | 0.00 | 0.00 | 81 | 1017.5 |
| 20260901130503 | 79 | 0 | 0.0 | 0.0 | 0.00 | 0.00 | 0.00 | 81 | 1017.4 |
| 20260901130003 | 79 | 0 | 0.0 | 0.0 | 0.00 | 0.00 | 0.00 | 82 | 1017.4 |
| 20260901125503 | 78 | 0 | 0.0 | 0.0 | 0.00 | 0.00 | 0.00 | 82 | 1017.3 |
| 20260901125002 | 78 | 0 | 0.0 | 0.0 | 0.00 | 0.00 | 0.00 | 82 | 1017.3 |
| 20260901124503 | 78 | 139 | 0.0 | 0.9 | 0.00 | 0.00 | 0.00 | 83 | 1017.1 |
| 20260901124002 | 78 | 152 | 0.0 | 1.7 | 0.00 | 0.00 | 0.00 | 83 | 1017.1 |
| 20260901123502 | 77 | 155 | 0.0 | 1.7 | 0.00 | 0.00 | 0.00 | 83 | 1017.1 |
| 20260901123003 | 77 | 163 | 0.0 | 0.9 | 0.00 | 0.00 | 0.00 | 83 | 1017.0 |
| 20260901122503 | 77 | 0 | 0.0 | 0.0 | 0.00 | 0.00 | 0.00 | 82 | 1016.9 |
| 20260901122003 | 77 | 0 | 0.0 | 0.0 | 0.00 | 0.00 | 0.00 | 82 | 1016.9 |
| 20260901121503 | 77 | 0 | 0.0 | 0.0 | 0.00 | 0.00 | 0.00 | 82 | 1016.8 |
| 20260901121003 | 77 | 0 | 0.0 | 0.0 | 0.00 | 0.00 | 0.00 | 82 | 1016.8 |
| 20260901120003 | 77 | 0 | 0.0 | 0.0 | 0.00 | 0.00 | 0.00 | 81 | 1016.5 |
| 20260901115502 | 78 | 0 | 0.0 | 0.0 | 0.00 | 0.00 | 0.00 | 81 | 1016.5 |
| 20260901115003 | 78 | 0 | 0.0 | 0.0 | 0.00 | 0.00 | 0.00 | 80 | 1016.4 |
| 20260901114503 | 78 | 0 | 0.0 | 0.0 | 0.00 | 0.00 | 0.00 | 80 | 1016.4 |
| 20260901114003 | 78 | 0 | 0.0 | 0.0 | 0.00 | 0.00 | 0.00 | 80 | 1016.3 |
| 20260901113503 | 78 | 0 | 0.0 | 0.0 | 0.00 | 0.00 | 0.00 | 79 | 1016.3 |
| 20260901113003 | 78 | 0 | 0.0 | 0.0 | 0.00 | 0.00 | 0.00 | 80 | 1016.3 |
| 20260901112503 | 79 | 154 | 0.0 | 0.9 | 0.00 | 0.00 | 0.00 | 79 | 1016.3 |
| 20260901112003 | 79 | 154 | 0.0 | 0.9 | 0.00 | 0.00 | 0.00 | 79 | 1016.3 |
| 20260901111502 | 79 | 173 | 0.0 | 0.9 | 0.00 | 0.00 | 0.00 | 79 | 1016.3 |
| 20260901110503 | 79 | 173 | 0.0 | 0.9 | 0.00 | 0.00 | 0.00 | 78 | 1016.2 |
| 20260901110003 | 79 | 0 | 0.0 | 0.0 | 0.00 | 0.00 | 0.00 | 78 | 1016.2 |
| 20260901105503 | 79 | 0 | 0.0 | 0.0 | 0.00 | 0.00 | 0.00 | 78 | 1016.2 |
| 20260901105003 | 79 | 0 | 0.0 | 0.0 | 0.00 | 0.00 | 0.00 | 78 | 1016.2 |
| 20260901104503 | 79 | 0 | 0.0 | 0.0 | 0.00 | 0.00 | 0.00 | 77 | 1016.2 |
| 20260901103503 | 79 | 0 | 0.0 | 0.0 | 0.00 | 0.00 | 0.00 | 77 | 1016.2 |
| 20260901103002 | 79 | 173 | 0.0 | 0.9 | 0.00 | 0.00 | 0.00 | 76 | 1016.2 |
| 20260901102503 | 79 | 173 | 0.0 | 0.9 | 0.00 | 0.00 | 0.00 | 76 | 1016.2 |
| 20260901102003 | 79 | 0 | 0.0 | 0.0 | 0.00 | 0.00 | 0.00 | 76 | 1016.2 |
| 20260901101003 | 79 | 173 | 0.0 | 0.9 | 0.00 | 0.00 | 0.00 | 76 | 1016.3 |
| 20260901100503 | 79 | 173 | 0.0 | 0.9 | 0.00 | 0.00 | 0.00 | 75 | 1016.2 |
| 20260901100003 | 80 | 173 | 0.0 | 0.9 | 0.00 | 0.00 | 0.00 | 75 | 1016.3 |
| 20260901095503 | 80 | 173 | 0.0 | 0.9 | 0.00 | 0.00 | 0.00 | 75 | 1016.3 |
| 20260901095003 | 80 | 173 | 0.0 | 0.9 | 0.00 | 0.00 | 0.00 | 75 | 1016.2 |
| 20260901094503 | 80 | 0 | 0.0 | 0.0 | 0.00 | 0.00 | 0.00 | 74 | 1016.4 |
| 20260901094003 | 80 | 0 | 0.0 | 0.0 | 0.00 | 0.00 | 0.00 | 74 | 1016.4 |
| 20260901093504 | 80 | 173 | 0.0 | 0.9 | 0.00 | 0.00 | 0.00 | 74 | 1016.4 |
| 20260901093004 | 80 | 173 | 0.0 | 0.9 | 0.00 | 0.00 | 0.00 | 74 | 1016.4 |
| 20260901092003 | 80 | 173 | 0.0 | 0.9 | 0.00 | 0.00 | 0.00 | 73 | 1016.3 |
| 20260901091004 | 81 | 0 | 0.0 | 0.0 | 0.00 | 0.00 | 0.00 | 72 | 1016.3 |
| 20260901090503 | 81 | 159 | 0.0 | 1.7 | 0.00 | 0.00 | 0.00 | 72 | 1016.2 |
| 20260901090004 | 81 | 155 | 0.0 | 1.7 | 0.00 | 0.00 | 0.00 | 71 | 1016.2 |
| 20260901085503 | 81 | 170 | 0.0 | 0.9 | 0.00 | 0.00 | 0.00 | 71 | 1016.1 |
| 20260901085003 | 81 | 184 | 0.0 | 0.9 | 0.00 | 0.00 | 0.00 | 71 | 1016.1 |
| 20260901084503 | 81 | 192 | 0.0 | 1.7 | 0.00 | 0.00 | 0.00 | 71 | 1016.1 |
| 20260901084004 | 81 | 183 | 0.0 | 1.7 | 0.00 | 0.00 | 0.00 | 70 | 1016.1 |
| 20260901083503 | 82 | 139 | 0.0 | 0.9 | 0.00 | 0.00 | 0.00 | 70 | 1016.0 |
| 20260901083003 | 82 | 145 | 0.0 | 0.9 | 0.00 | 0.00 | 0.00 | 70 | 1016.0 |
| 20260901082503 | 82 | 161 | 0.0 | 1.7 | 0.00 | 0.00 | 0.00 | 69 | 1016.0 |
| 20260901081503 | 82 | 0 | 0.0 | 0.0 | 0.00 | 0.00 | 0.00 | 69 | 1016.0 |
| 20260901081003 | 82 | 165 | 0.0 | 0.9 | 0.00 | 0.00 | 0.00 | 68 | 1016.0 |
| 20260901080004 | 83 | 193 | 0.0 | 2.6 | 0.00 | 0.00 | 0.00 | 67 | 1015.9 |
| 20260901075003 | 83 | 181 | 0.0 | 1.7 | 0.00 | 0.00 | 0.00 | 67 | 1015.9 |
| 20260901074503 | 83 | 175 | 0.0 | 2.6 | 0.00 | 0.00 | 0.00 | 67 | 1015.9 |
| 20260901074004 | 83 | 176 | 0.0 | 2.6 | 0.00 | 0.00 | 0.00 | 67 | 1015.9 |
| 20260901073503 | 84 | 178 | 0.0 | 1.7 | 0.00 | 0.00 | 0.00 | 67 | 1015.9 |